Location: Brompton
(51.4000°N, 0.5333°E)
Time: 12:02:55
(UTC+00:00)

Cosmos 1898 Rocket - Pass Details

Date: 28 September 2021
Orbit: 752 x 784 km, 74.0° (Epoch: 17 October)

Event Time Altitude Azimuth Distance (km) Brightness Sun altitude
Rises 03:03:12 0° 339° (NNW) 3,263 6.9 -26.1°
Reaches altitude 10° 03:07:32 10° 12° (NNE) 2,340 6.5 -25.5°
Maximum altitude 03:09:16 11° 32° (NNE) 2,239 6.7 -25.3°
Drops below altitude 10° 03:10:59 10° 51° (NE) 2,343 7.0 -25.1°
Sets 03:15:18 0° 84° (E) 3,272 7.8 -24.5°
